Location: Unspecified
(44.4377°N, 88.0525°W)
Time: 04:21:15
(UTC-06:00)

CZ-3 Stage 3 - Pass Details

Date: 29 January 2021
Orbit: 398 x 34787 km, 30.8° (Epoch: 27 February)

Event Time Altitude Azimuth Distance (km) Brightness Sun altitude
Rises 00:20:54 0° 290° (WNW) 14,196 9.0 -63.2°
Reaches altitude 10° 00:35:23 10° 282° (WNW) 16,621 9.2 -62.7°
Maximum altitude 01:35:16 21° 268° (W) 26,287 9.9 -57.4°
Drops below altitude 10° 03:36:59 10° 266° (W) 38,087 10.5 -38.6°
Sets 04:50:22 0° 268° (W) 40,667 10.7 -25.6°
